Weather in Skal'ny

Russia / Perm Krai     58°21′30″N   57°57′53″E
temp.,
°C
wind,
m/s
gust,
m/s
humid.,
%
clouds,
%
prec.,
mm/h
press.,
hPa
HPBL,
m
28 february, sun
sun2823:00−19ese51292100 0.3 1013628
02:00−19e51290100 0.1 1012580
05:00−19e61391100 0.2 1012550
08:00−20e61393100 0.1 1011520
11:00−19e61292100 0.3 1011473
14:00−16e61191100 0.2 1011518
17:00−17e51191100 0.4 1012516
20:00−18e41193100 0.2 1013509
1 march, mon
mon123:00−18e4109299 0.4 1015496
02:00−18e399399 0.1 1016413
05:00−19ene289599 0.1 1018344
08:00−21ene249787 0.1 1019141
11:00−17ene248983 0.1 1019327
14:00−12e238496 0.0 1018484
17:00−11nne018498 0.0 1018535
20:00−17ssw119699 0.0 101720
2 march, tue
tue223:00−18s129880 0.0 101720
02:00−19s2210086 0.0 101521
05:00−21s2310093 0.1 101361
08:00−19s399899 0.0 1011268
11:00−16s499399 0.0 1009394
14:00−13s4991100 0.1 1007506
17:00−11s41092100 0.6 1005581
20:00−12ssw31194100 0.4 1004641
3 march, wed
wed323:00−13ssw31094100 0.8 1004541
02:00−14s3896100 0.3 1003429
05:00−14s2895100 0.6 1002392
08:00−14sse2697100 0.4 1001277
11:00−11s2391100 0.8 1001371
14:00−8s1288100 0.3 1000450
17:00−8wnw1192100 0.6 1000232
20:00−11nnw129799 0.3 99922
4 march, thu
thu423:00−12nnw1297100 0.4 100021
02:00−13nw129789 0.1 100023
05:00−13wnw129793 0.1 100127
08:00−14wnw239898 0.1 100286
11:00−11wnw379398 0.1 1003390
14:00−8wnw4789100 0.0 1004670
17:00−8wnw3690100 0.1 1005669
20:00−12w2397100 0.1 100662